Stündliche Wetter Abrosimovo

Heute, 18 Juni, Freitag

Zeit Temperatur Niederschläge Wind Luftdruck Luftfeuchtigkeit
00:00 +13°C° 0 mm 3 m/S 750 mmHg 92%
01:00 +13°C° 0 mm 3 m/S 750 mmHg 92%
02:00 +12°C° 0 mm 3 m/S 750 mmHg 92%
03:00 +13°C° 0 mm 3 m/S 751 mmHg 90%
04:00 +13°C° 0 mm 3 m/S 751 mmHg 88%
05:00 +13°C° 0 mm 3 m/S 751 mmHg 86%
06:00 +16°C° 0 mm 3 m/S 751 mmHg 79%
07:00 +18°C° 0 mm 4 m/S 751 mmHg 73%
08:00 +20°C° 0 mm 4 m/S 751 mmHg 67%
09:00 +21°C° 0 mm 4 m/S 751 mmHg 64%
10:00 +22°C° 0 mm 5 m/S 752 mmHg 61%
11:00 +23°C° 0 mm 5 m/S 752 mmHg 58%
12:00 +23°C° 0 mm 5 m/S 752 mmHg 58%
13:00 +23°C° 0 mm 5 m/S 751 mmHg 59%
14:00 +25°C° 0 mm 4 m/S 751 mmHg 59%
15:00 +23°C° 0 mm 4 m/S 751 mmHg 62%
16:00 +23°C° 0 mm 4 m/S 751 mmHg 66%
17:00 +24°C° 0 mm 3 m/S 751 mmHg 69%
18:00 +21°C° 0 mm 3 m/S 751 mmHg 76%
19:00 +19°C° 0 mm 3 m/S 751 mmHg 83%
20:00 +18°C° 0 mm 3 m/S 751 mmHg 89%
21:00 +17°C° 0 mm 3 m/S 751 mmHg 91%
22:00 +16°C° 0 mm 3 m/S 751 mmHg 92%
23:00 +15°C° 0 mm 2 m/S 751 mmHg 93%

Morgen, 19 Juni, Samstag

Zeit Temperatur Niederschläge Wind Luftdruck Luftfeuchtigkeit
00:00 +15°C° 0 mm 2 m/S 751 mmHg 93%
01:00 +15°C° 0 mm 2 m/S 751 mmHg 93%
02:00 +14°C° 0 mm 2 m/S 751 mmHg 94%
03:00 +15°C° 0 mm 2 m/S 751 mmHg 93%
04:00 +15°C° 0 mm 2 m/S 752 mmHg 91%
05:00 +15°C° 0 mm 2 m/S 752 mmHg 90%
06:00 +17°C° 0 mm 2 m/S 752 mmHg 84%
07:00 +19°C° 0 mm 3 m/S 752 mmHg 78%
08:00 +20°C° 0 mm 3 m/S 752 mmHg 72%
09:00 +21°C° 0 mm 3 m/S 752 mmHg 68%
10:00 +22°C° 0 mm 4 m/S 751 mmHg 65%
11:00 +23°C° 0 mm 4 m/S 751 mmHg 62%
12:00 +25°C° 0 mm 4 m/S 751 mmHg 62%
13:00 +25°C° 0 mm 3 m/S 751 mmHg 61%
14:00 +25°C° 0 mm 3 m/S 750 mmHg 61%
15:00 +25°C° 0 mm 3 m/S 750 mmHg 64%
16:00 +25°C° 0 mm 3 m/S 750 mmHg 68%
17:00 +25°C° 0 mm 3 m/S 750 mmHg 71%
18:00 +22°C° 0 mm 3 m/S 750 mmHg 77%
19:00 +21°C° 0 mm 3 m/S 750 mmHg 84%
20:00 +19°C° 0 mm 2 m/S 750 mmHg 90%
21:00 +18°C° 0 mm 2 m/S 750 mmHg 91%
22:00 +17°C° 0 mm 2 m/S 750 mmHg 91%
23:00 +16°C° 0 mm 2 m/S 750 mmHg 91%

übermorgen, 20 Juni, Sonntag

Zeit Temperatur Niederschläge Wind Luftdruck Luftfeuchtigkeit
00:00 +16°C° 0 mm 2 m/S 750 mmHg 91%
01:00 +15°C° 0 mm 2 m/S 750 mmHg 91%
02:00 +15°C° 0 mm 2 m/S 750 mmHg 91%
03:00 +15°C° 0 mm 2 m/S 750 mmHg 90%
04:00 +15°C° 0 mm 2 m/S 750 mmHg 90%
05:00 +16°C° 0 mm 2 m/S 750 mmHg 89%
06:00 +18°C° 0 mm 2 m/S 750 mmHg 83%
07:00 +19°C° 0 mm 3 m/S 750 mmHg 77%
08:00 +21°C° 0 mm 3 m/S 750 mmHg 71%
09:00 +22°C° 0 mm 3 m/S 750 mmHg 68%
10:00 +24°C° 0 mm 3 m/S 749 mmHg 64%
11:00 +25°C° 0 mm 3 m/S 749 mmHg 60%
12:00 +26°C° 0 mm 3 m/S 749 mmHg 59%
13:00 +26°C° 0 mm 3 m/S 749 mmHg 58%
14:00 +27°C° 0 mm 3 m/S 748 mmHg 57%
15:00 +26°C° 0 mm 3 m/S 748 mmHg 61%
16:00 +26°C° 0 mm 3 m/S 748 mmHg 65%
17:00 +26°C° 0 mm 3 m/S 748 mmHg 68%
18:00 +24°C° 0 mm 2 m/S 748 mmHg 75%
19:00 +23°C° 0 mm 2 m/S 748 mmHg 81%
20:00 +20°C° 0 mm 2 m/S 748 mmHg 87%
21:00 +19°C° 0 mm 2 m/S 748 mmHg 88%
22:00 +19°C° 0 mm 2 m/S 747 mmHg 88%
23:00 +18°C° 0 mm 2 m/S 747 mmHg 89%

21 Juni, Montag

Zeit Temperatur Niederschläge Wind Luftdruck Luftfeuchtigkeit
00:00 +18°C° 0 mm 2 m/S 747 mmHg 90%
01:00 +18°C° 0 mm 2 m/S 747 mmHg 91%
02:00 +17°C° 0 mm 2 m/S 747 mmHg 92%
03:00 +18°C° 0 mm 2 m/S 747 mmHg 91%
04:00 +18°C° 0 mm 3 m/S 747 mmHg 89%
05:00 +18°C° 0 mm 3 m/S 747 mmHg 88%
06:00 +20°C° 0 mm 3 m/S 747 mmHg 83%
07:00 +21°C° 0 mm 4 m/S 747 mmHg 78%
08:00 +23°C° 0 mm 5 m/S 747 mmHg 73%
09:00 +25°C° 0 mm 5 m/S 746 mmHg 70%
10:00 +26°C° 0 mm 5 m/S 746 mmHg 67%
11:00 +27°C° 0 mm 5 m/S 746 mmHg 63%
12:00 +28°C° 0 mm 5 m/S 746 mmHg 63%
13:00 +28°C° 0 mm 5 m/S 746 mmHg 62%
14:00 +29°C° 0 mm 5 m/S 746 mmHg 61%
15:00 +29°C° 0 mm 5 m/S 746 mmHg 65%
16:00 +28°C° 0 mm 4 m/S 745 mmHg 68%
17:00 +28°C° 0 mm 4 m/S 745 mmHg 72%
18:00 +26°C° 0 mm 4 m/S 745 mmHg 77%
19:00 +25°C° 0 mm 3 m/S 745 mmHg 82%
20:00 +22°C° 0 mm 3 m/S 745 mmHg 88%
21:00 +22°C° 0 mm 3 m/S 745 mmHg 90%
22:00 +21°C° 0 mm 3 m/S 745 mmHg 91%
23:00 +20°C° 0 mm 3 m/S 745 mmHg 93%

22 Juni, Dienstag

Zeit Temperatur Niederschläge Wind Luftdruck Luftfeuchtigkeit
00:00 +20°C° 0 mm 3 m/S 745 mmHg 93%
01:00 +19°C° 0 mm 3 m/S 745 mmHg 94%
02:00 +19°C° 0 mm 3 m/S 745 mmHg 94%
03:00 +19°C° 0 mm 3 m/S 745 mmHg 92%
04:00 +19°C° 0 mm 3 m/S 745 mmHg 90%
05:00 +20°C° 0 mm 3 m/S 746 mmHg 88%
06:00 +21°C° 0 mm 3 m/S 746 mmHg 82%
07:00 +23°C° 0 mm 4 m/S 746 mmHg 77%
08:00 +26°C° 0 mm 4 m/S 746 mmHg 71%
09:00 +27°C° 0 mm 5 m/S 746 mmHg 67%
10:00 +28°C° 0 mm 5 m/S 746 mmHg 64%
11:00 +29°C° 0 mm 5 m/S 746 mmHg 60%
12:00 +30°C° 0 mm 5 m/S 746 mmHg 60%
13:00 +30°C° 0 mm 5 m/S 746 mmHg 60%
14:00 +30°C° 0 mm 4 m/S 746 mmHg 60%
15:00 +30°C° 0 mm 4 m/S 746 mmHg 64%
16:00 +29°C° 0 mm 4 m/S 746 mmHg 68%
17:00 +29°C° 0 mm 4 m/S 746 mmHg 72%
18:00 +27°C° 0 mm 3 m/S 746 mmHg 78%
19:00 +26°C° 0 mm 3 m/S 746 mmHg 83%
20:00 +24°C° 0 mm 3 m/S 746 mmHg 89%
21:00 +24°C° 0 mm 3 m/S 746 mmHg 90%
22:00 +22°C° 0 mm 3 m/S 746 mmHg 91%
23:00 +21°C° 0 mm 3 m/S 746 mmHg 93%

23 Juni, Mittwoch

Zeit Temperatur Niederschläge Wind Luftdruck Luftfeuchtigkeit
00:00 +21°C° 0 mm 3 m/S 746 mmHg 93%
01:00 +20°C° 0 mm 3 m/S 746 mmHg 93%
02:00 +20°C° 0 mm 3 m/S 746 mmHg 93%
03:00 +20°C° 0 mm 3 m/S 746 mmHg 92%
04:00 +21°C° 0 mm 3 m/S 747 mmHg 91%
05:00 +21°C° 0 mm 3 m/S 747 mmHg 90%
06:00 +24°C° 0 mm 3 m/S 747 mmHg 84%
07:00 +25°C° 0 mm 4 m/S 747 mmHg 78%
08:00 +27°C° 0 mm 4 m/S 747 mmHg 73%
09:00 +28°C° 0 mm 4 m/S 747 mmHg 69%
10:00 +29°C° 0 mm 5 m/S 747 mmHg 65%
11:00 +30°C° 0 mm 5 m/S 747 mmHg 61%
12:00 +30°C° 0 mm 5 m/S 747 mmHg 62%
13:00 +30°C° 0 mm 5 m/S 747 mmHg 62%
14:00 +30°C° 0 mm 5 m/S 747 mmHg 63%
15:00 +30°C° 0.1 mm 4 m/S 747 mmHg 67%
16:00 +29°C° 0.1 mm 4 m/S 746 mmHg 71%
17:00 +28°C° 0.1 mm 4 m/S 746 mmHg 74%
18:00 +27°C° 0 mm 4 m/S 746 mmHg 78%
19:00 +26°C° 0 mm 3 m/S 746 mmHg 82%
20:00 +25°C° 0 mm 3 m/S 746 mmHg 86%
21:00 +24°C° 0 mm 3 m/S 746 mmHg 87%
22:00 +22°C° 0 mm 3 m/S 746 mmHg 88%
23:00 +22°C° 0 mm 3 m/S 746 mmHg 89%
Mehr zeigen

Wir brauchen deine Erlaubnis

Meteoprog und unser Service Anbieter werden persönliche Daten aufbewahren, so wie Cookies, Geräte Bezeichnung oder ähnliche Technologien von deinem Gerät und Prozess, so wie Persönliche Daten Inhalte und Werbungen, genauso wie social Media und den Verkehr zu analysieren.

  • Aufbewahrung und/oder Zugang zu deiner Geräte Informationen.

    Cookies, Geräte Bezeichnung oder andere Informationen, können aufbewahrt oder Zugang zu deinem Gerät erhalten, für den Grund, der oben angegeben wird.

  • Personalisierte Werbung und Inhalte, Messungen, Einblick in das Publikum und Produkt Entwicklung.

    Werbungen und Inhalte können personalisiert werden, basierend auf ein Profil. Mehr Daten können besser personalisierte Werbungen und Inhalte hinzufügen. Werbung und Inhalte können gezeigt und gemessen werden. Einblicke über das Publikum, welche die Werbung gesehen haben und den Inhalt, können abgeleitet werden. So wie Daten können genutzt werden, um es zu verbessern oder die Benutzer Erfahrung zu verbessern das System und die Software.

Wenn du “Ich stimme zu” klickst, erlaubst du uns, die Cookies zu benutzen die Geräte Bezeichnung, den Web oder ähnliche Technologien zu benutzen. Deine Settings, können in deinem Gerät bei deinem Browser geändert werden.

Für den bestimmten Zweck, berechtigten Interessen beruhen darauf, mehr als auf den Inhalt. Du kannst mehr darüber in unseren Privaten und Cookie Politik lesen.